TimeEST,TemperatureF,Dew PointF,Humidity,Sea Level PressureIn,VisibilityMPH,Wind Direction,Wind SpeedMPH,Gust SpeedMPH,PrecipitationIn,Events,Conditions,WindDirDegrees,DateUTC
12:15 AM,41.4,32.0,69,30.16,10.0,Calm,Calm,-,N/A,,Overcast,0,2012-12-12 05:15:00
12:35 AM,41.2,32.4,71,30.17,10.0,NNW,3.5,-,N/A,,Overcast,330,2012-12-12 05:35:00
12:55 AM,41.0,32.7,72,30.16,10.0,Calm,Calm,-,N/A,,Overcast,0,2012-12-12 05:55:00
1:15 AM,41.0,32.4,71,30.16,10.0,Calm,Calm,-,N/A,,Mostly Cloudy,0,2012-12-12 06:15:00
1:35 AM,41.0,32.2,71,30.17,10.0,North,3.5,-,N/A,,Mostly Cloudy,350,2012-12-12 06:35:00
1:55 AM,41.4,32.2,70,30.17,10.0,NNW,3.5,-,N/A,,Overcast,340,2012-12-12 06:55:00
2:15 AM,41.4,32.4,70,30.17,10.0,NNW,3.5,-,N/A,,Overcast,330,2012-12-12 07:15:00
2:35 AM,41.4,32.0,69,30.17,10.0,Calm,Calm,-,N/A,,Mostly Cloudy,0,2012-12-12 07:35:00
2:55 AM,41.2,32.0,70,30.16,10.0,Calm,Calm,-,N/A,,Mostly Cloudy,0,2012-12-12 07:55:00
3:15 AM,41.2,32.0,70,30.17,10.0,North,4.6,-,N/A,,Mostly Cloudy,350,2012-12-12 08:15:00
3:35 AM,41.9,32.0,68,30.17,10.0,North,4.6,-,N/A,,Overcast,10,2012-12-12 08:35:00
3:55 AM,41.5,32.2,69,30.18,10.0,North,3.5,-,N/A,,Overcast,350,2012-12-12 08:55:00
4:15 AM,41.4,32.2,70,30.19,10.0,Calm,Calm,-,N/A,,Overcast,0,2012-12-12 09:15:00
4:35 AM,41.4,32.4,70,30.18,10.0,Calm,Calm,-,N/A,,Overcast,0,2012-12-12 09:35:00
4:55 AM,41.0,32.9,73,30.20,10.0,Calm,Calm,-,N/A,,Overcast,0,2012-12-12 09:55:00
5:15 AM,41.0,32.9,73,30.20,10.0,Calm,Calm,-,N/A,,Overcast,0,2012-12-12 10:15:00
5:35 AM,41.2,32.7,72,30.20,10.0,Calm,Calm,-,N/A,,Overcast,0,2012-12-12 10:35:00
5:55 AM,41.4,32.5,71,30.21,10.0,North,3.5,-,N/A,,Overcast,360,2012-12-12 10:55:00
6:15 AM,41.4,32.4,70,30.21,10.0,North,3.5,-,N/A,,Mostly Cloudy,350,2012-12-12 11:15:00
6:35 AM,41.4,32.2,70,30.23,10.0,Calm,Calm,-,N/A,,Mostly Cloudy,0,2012-12-12 11:35:00
6:55 AM,41.2,32.2,70,30.23,10.0,North,4.6,-,N/A,,Overcast,360,2012-12-12 11:55:00
7:15 AM,41.0,32.0,70,30.23,10.0,North,4.6,-,N/A,,Scattered Clouds,10,2012-12-12 12:15:00
7:35 AM,40.6,32.0,71,30.24,10.0,Calm,Calm,-,N/A,,Scattered Clouds,0,2012-12-12 12:35:00
7:55 AM,40.5,31.3,70,30.23,10.0,North,4.6,-,N/A,,Clear,10,2012-12-12 12:55:00
8:15 AM,40.6,31.1,69,30.24,10.0,Calm,Calm,-,N/A,,Clear,0,2012-12-12 13:15:00
8:35 AM,41.5,31.1,66,30.24,10.0,NNE,4.6,-,N/A,,Clear,20,2012-12-12 13:35:00
8:55 AM,42.4,30.4,62,30.24,10.0,NNE,5.8,-,N/A,,Clear,30,2012-12-12 13:55:00
9:15 AM,42.8,30.9,63,30.25,10.0,NNE,3.5,-,N/A,,Clear,20,2012-12-12 14:15:00
9:35 AM,43.5,30.7,61,30.26,10.0,North,5.8,-,N/A,,Clear,10,2012-12-12 14:35:00
9:55 AM,43.9,31.6,62,30.27,10.0,North,3.5,-,N/A,,Clear,10,2012-12-12 14:55:00
10:15 AM,45.5,32.0,59,30.28,10.0,North,4.6,-,N/A,,Scattered Clouds,360,2012-12-12 15:15:00
10:35 AM,45.3,32.0,60,30.28,10.0,North,6.9,-,N/A,,Mostly Cloudy,10,2012-12-12 15:35:00
10:55 AM,45.7,32.0,59,30.27,10.0,NNE,5.8,-,N/A,,Scattered Clouds,20,2012-12-12 15:55:00
11:15 AM,46.2,32.5,59,30.27,10.0,NNE,5.8,-,N/A,,Clear,30,2012-12-12 16:15:00
11:35 AM,46.9,33.1,59,30.27,10.0,North,4.6,-,N/A,,Clear,10,2012-12-12 16:35:00
12:15 PM,47.1,33.1,58,30.26,10.0,NNE,6.9,-,N/A,,Clear,20,2012-12-12 17:15:00
12:35 PM,47.5,33.8,59,30.24,10.0,North,5.8,-,N/A,,Clear,10,2012-12-12 17:35:00
12:55 PM,47.5,33.8,59,30.26,10.0,North,4.6,-,N/A,,Clear,360,2012-12-12 17:55:00
1:15 PM,47.3,33.6,59,30.25,10.0,NNE,5.8,-,N/A,,Clear,30,2012-12-12 18:15:00
1:35 PM,47.5,33.8,59,30.23,10.0,NNE,8.1,-,N/A,,Clear,30,2012-12-12 18:35:00
1:55 PM,47.5,33.8,59,30.23,10.0,NNE,5.8,-,N/A,,Clear,20,2012-12-12 18:55:00
2:15 PM,47.5,33.8,59,30.24,10.0,North,5.8,-,N/A,,Scattered Clouds,10,2012-12-12 19:15:00
2:35 PM,47.3,33.4,59,30.24,10.0,North,5.8,-,N/A,,Mostly Cloudy,10,2012-12-12 19:35:00
2:55 PM,46.9,33.6,60,30.23,10.0,NNE,10.4,-,N/A,,Mostly Cloudy,20,2012-12-12 19:55:00
3:15 PM,46.4,33.3,60,30.24,10.0,North,4.6,-,N/A,,Scattered Clouds,360,2012-12-12 20:15:00
3:35 PM,46.2,33.3,61,30.25,10.0,North,5.8,-,N/A,,Mostly Cloudy,10,2012-12-12 20:35:00
3:55 PM,45.9,33.3,61,30.24,10.0,North,5.8,-,N/A,,Mostly Cloudy,10,2012-12-12 20:55:00
4:15 PM,45.5,32.9,61,30.24,10.0,NNE,5.8,-,N/A,,Mostly Cloudy,20,2012-12-12 21:15:00
4:35 PM,45.5,32.9,61,30.24,10.0,NNE,8.1,-,N/A,,Overcast,20,2012-12-12 21:35:00
4:55 PM,45.3,32.4,61,30.24,10.0,NNE,10.4,-,N/A,,Overcast,20,2012-12-12 21:55:00
5:15 PM,45.1,32.2,60,30.25,10.0,NNE,8.1,-,N/A,,Overcast,30,2012-12-12 22:15:00
5:35 PM,45.5,32.2,60,30.26,10.0,NNE,5.8,-,N/A,,Overcast,20,2012-12-12 22:35:00
5:55 PM,45.1,32.0,60,30.27,10.0,NNE,6.9,-,N/A,,Overcast,20,2012-12-12 22:55:00
6:15 PM,45.1,32.0,60,30.26,10.0,NNE,6.9,-,N/A,,Overcast,20,2012-12-12 23:15:00
6:35 PM,45.0,32.0,60,30.26,10.0,NNE,9.2,-,N/A,,Overcast,20,2012-12-12 23:35:00
7:15 PM,44.8,32.0,61,30.28,10.0,NNE,8.1,-,N/A,,Overcast,30,2012-12-13 00:15:00
7:35 PM,44.6,32.0,61,30.27,10.0,NNE,6.9,-,N/A,,Overcast,20,2012-12-13 00:35:00
7:55 PM,44.6,32.0,61,30.28,10.0,North,4.6,-,N/A,,Overcast,10,2012-12-13 00:55:00
8:15 PM,44.8,31.8,60,30.30,10.0,NNE,4.6,-,N/A,,Overcast,30,2012-12-13 01:15:00
8:35 PM,44.6,31.8,61,30.29,10.0,NNE,4.6,-,N/A,,Overcast,30,2012-12-13 01:35:00
8:55 PM,44.6,31.6,60,30.29,10.0,NNE,6.9,-,N/A,,Overcast,20,2012-12-13 01:55:00
9:15 PM,44.2,31.8,62,30.30,10.0,North,3.5,-,N/A,,Overcast,360,2012-12-13 02:15:00
9:35 PM,44.2,31.6,61,30.28,10.0,NNE,4.6,-,N/A,,Overcast,20,2012-12-13 02:35:00
9:55 PM,44.1,31.6,62,30.29,10.0,North,5.8,-,N/A,,Overcast,10,2012-12-13 02:55:00
10:15 PM,44.1,31.6,62,30.29,10.0,North,4.6,-,N/A,,Overcast,10,2012-12-13 03:15:00
10:35 PM,43.9,31.6,62,30.30,10.0,North,3.5,-,N/A,,Overcast,350,2012-12-13 03:35:00
10:55 PM,43.9,31.1,61,30.30,10.0,NNE,3.5,-,N/A,,Overcast,20,2012-12-13 03:55:00
11:15 PM,43.7,31.1,61,30.30,10.0,Calm,Calm,-,N/A,,Overcast,0,2012-12-13 04:15:00
11:35 PM,43.7,30.7,60,30.28,10.0,NNE,4.6,-,N/A,,Overcast,30,2012-12-13 04:35:00
11:55 PM,43.7,30.0,59,30.31,10.0,North,3.5,-,N/A,,Overcast,360,2012-12-13 04:55:00